| time (UTC) | temp C | wind direction | speed KPH | gust KPH | rain 1hr cm | rain 24hr cm | rain mn cm | humidity % | barometer mb |
| 20260903130905 | 39 | 110 | 0.0 | 3.2 | 0.00 | 0.00 | 0.00 | 20 | 1020.4 |
| 20260903125905 | 39 | 292 | 0.0 | 1.6 | 0.00 | 0.00 | 0.00 | 20 | 1020.4 |
| 20260903125405 | 38 | 292 | 0.0 | 1.6 | 0.00 | 0.00 | 0.00 | 21 | 1020.5 |
| 20260903124905 | 37 | 292 | 0.0 | 8.0 | 0.00 | 0.00 | 0.00 | 21 | 1020.6 |
| 20260903123904 | 37 | 286 | 3.2 | 9.7 | 0.00 | 0.00 | 0.00 | 21 | 1020.6 |
| 20260903122905 | 37 | 244 | 1.6 | 14.5 | 0.00 | 0.00 | 0.00 | 21 | 1020.6 |
| 20260903122405 | 38 | 174 | 11.3 | 14.5 | 0.00 | 0.00 | 0.00 | 21 | 1020.6 |
| 20260903121905 | 37 | 229 | 9.7 | 12.9 | 0.00 | 0.00 | 0.00 | 21 | 1020.7 |
| 20260903121405 | 37 | 194 | 3.2 | 9.7 | 0.00 | 0.00 | 0.00 | 21 | 1020.7 |
| 20260903120405 | 37 | 355 | 3.2 | 12.9 | 0.00 | 0.00 | 0.00 | 22 | 1020.7 |
| 20260903115405 | 37 | 298 | 4.8 | 14.5 | 0.00 | 0.00 | 0.00 | 22 | 1020.9 |
| 20260903114905 | 37 | 317 | 0.0 | 1.6 | 0.00 | 0.00 | 0.00 | 23 | 1020.9 |
| 20260903114405 | 37 | 288 | 4.8 | 11.3 | 0.00 | 0.00 | 0.00 | 23 | 1020.9 |
| 20260903113904 | 36 | 5 | 3.2 | 11.3 | 0.00 | 0.00 | 0.00 | 24 | 1020.9 |
| 20260903113405 | 36 | 313 | 4.8 | 11.3 | 0.00 | 0.00 | 0.00 | 24 | 1021.0 |
| 20260903112905 | 36 | 329 | 3.2 | 11.3 | 0.00 | 0.00 | 0.00 | 25 | 1021.0 |
| 20260903112405 | 35 | 332 | 0.0 | 11.3 | 0.00 | 0.00 | 0.00 | 26 | 1021.0 |
| 20260903111405 | 35 | 311 | 4.8 | 8.0 | 0.00 | 0.00 | 0.00 | 26 | 1021.0 |
| 20260903110904 | 35 | 316 | 0.0 | 11.3 | 0.00 | 0.00 | 0.00 | 28 | 1021.1 |
| 20260903110404 | 34 | 334 | 1.6 | 9.7 | 0.00 | 0.00 | 0.00 | 28 | 1021.1 |
| 20260903105905 | 34 | 10 | 4.8 | 9.7 | 0.00 | 0.00 | 0.00 | 29 | 1021.2 |
| 20260903105405 | 34 | 302 | 1.6 | 8.0 | 0.00 | 0.00 | 0.00 | 30 | 1021.2 |
| 20260903104905 | 33 | 329 | 3.2 | 9.7 | 0.00 | 0.00 | 0.00 | 31 | 1021.3 |
| 20260903104405 | 33 | 329 | 0.0 | 8.0 | 0.00 | 0.00 | 0.00 | 31 | 1021.2 |
| 20260903103905 | 33 | 233 | 1.6 | 9.7 | 0.00 | 0.00 | 0.00 | 32 | 1021.2 |
| 20260903103405 | 32 | 293 | 6.4 | 11.3 | 0.00 | 0.00 | 0.00 | 32 | 1021.2 |
| 20260903102904 | 32 | 312 | 8.0 | 12.9 | 0.00 | 0.00 | 0.00 | 33 | 1021.2 |
| 20260903102405 | 32 | 248 | 1.6 | 9.7 | 0.00 | 0.00 | 0.00 | 36 | 1021.2 |
| 20260903101905 | 31 | 277 | 3.2 | 11.3 | 0.00 | 0.00 | 0.00 | 37 | 1021.1 |
| 20260903101405 | 31 | 335 | 4.8 | 12.9 | 0.00 | 0.00 | 0.00 | 37 | 1021.2 |
| 20260903100905 | 30 | 271 | 6.4 | 11.3 | 0.00 | 0.00 | 0.00 | 38 | 1021.1 |
| 20260903100404 | 30 | 281 | 4.8 | 11.3 | 0.00 | 0.00 | 0.00 | 40 | 1021.0 |
| 20260903095905 | 30 | 298 | 4.8 | 12.9 | 0.00 | 0.00 | 0.00 | 41 | 1021.1 |
| 20260903094405 | 28 | 297 | 1.6 | 8.0 | 0.00 | 0.00 | 0.00 | 46 | 1021.0 |
| 20260903093904 | 27 | 182 | 3.2 | 9.7 | 0.00 | 0.00 | 0.00 | 46 | 1021.0 |
| 20260903093405 | 27 | 240 | 8.0 | 12.9 | 0.00 | 0.00 | 0.00 | 47 | 1021.0 |
| 20260903092905 | 27 | 249 | 8.0 | 14.5 | 0.00 | 0.00 | 0.00 | 48 | 1021.0 |
| 20260903092405 | 26 | 206 | 9.7 | 14.5 | 0.00 | 0.00 | 0.00 | 49 | 1021.1 |
| 20260903091905 | 26 | 256 | 9.7 | 14.5 | 0.00 | 0.00 | 0.00 | 48 | 1021.2 |
| 20260903091405 | 26 | 240 | 8.0 | 11.3 | 0.00 | 0.00 | 0.00 | 50 | 1021.2 |
| 20260903090404 | 25 | 240 | 8.0 | 12.9 | 0.00 | 0.00 | 0.00 | 52 | 1021.2 |
| 20260903085405 | 24 | 326 | 6.4 | 14.5 | 0.00 | 0.00 | 0.00 | 52 | 1021.3 |
| 20260903084905 | 24 | 350 | 3.2 | 11.3 | 0.00 | 0.00 | 0.00 | 54 | 1021.2 |
| 20260903084405 | 23 | 269 | 4.8 | 9.7 | 0.00 | 0.00 | 0.00 | 53 | 1021.2 |
| 20260903083905 | 23 | 294 | 4.8 | 9.7 | 0.00 | 0.00 | 0.00 | 54 | 1021.2 |
| 20260903083405 | 23 | 320 | 6.4 | 9.7 | 0.00 | 0.00 | 0.00 | 54 | 1021.3 |
| 20260903082904 | 23 | 311 | 4.8 | 9.7 | 0.00 | 0.00 | 0.00 | 56 | 1021.2 |
| 20260903082405 | 22 | 329 | 4.8 | 11.3 | 0.00 | 0.00 | 0.00 | 58 | 1021.3 |
| 20260903081905 | 22 | 320 | 1.6 | 9.7 | 0.00 | 0.00 | 0.00 | 60 | 1021.2 |
| 20260903081406 | 21 | 281 | 1.6 | 4.8 | 0.00 | 0.00 | 0.00 | 67 | 1021.3 |
| 20260903080905 | 21 | 281 | 3.2 | 11.3 | 0.00 | 0.00 | 0.00 | 63 | 1021.2 |
| 20260903080405 | 21 | 284 | 1.6 | 9.7 | 0.00 | 0.00 | 0.00 | 65 | 1021.2 |
| 20260903075904 | 21 | 289 | 6.4 | 12.9 | 0.00 | 0.00 | 0.00 | 66 | 1021.1 |
| 20260903075404 | 21 | 304 | 6.4 | 9.7 | 0.00 | 0.00 | 0.00 | 65 | 1021.1 |
| 20260903074904 | 21 | 253 | 8.0 | 12.9 | 0.00 | 0.00 | 0.00 | 65 | 1021.2 |
| 20260903074404 | 20 | 334 | 3.2 | 11.3 | 0.00 | 0.00 | 0.00 | 66 | 1021.2 |
| 20260903073904 | 20 | 271 | 8.0 | 11.3 | 0.00 | 0.00 | 0.00 | 66 | 1021.1 |
| 20260903073405 | 20 | 281 | 4.8 | 9.7 | 0.00 | 0.00 | 0.00 | 67 | 1021.1 |
| 20260903072405 | 20 | 169 | 0.0 | 1.6 | 0.00 | 0.00 | 0.00 | 72 | 1021.1 |
| 20260903071904 | 20 | 169 | 0.0 | 1.6 | 0.00 | 0.00 | 0.00 | 73 | 1021.0 |
| 20260903070905 | 18 | 169 | 0.0 | 1.6 | 0.00 | 0.00 | 0.00 | 83 | 1020.9 |
| 20260903065905 | 18 | 169 | 0.0 | 0.0 | 0.00 | 0.00 | 0.00 | 86 | 1021.0 |
| 20260903065405 | 17 | 169 | 0.0 | 0.0 | 0.00 | 0.00 | 0.00 | 86 | 1021.0 |
| 20260903064904 | 17 | 169 | 0.0 | 0.0 | 0.00 | 0.00 | 0.00 | 86 | 1020.9 |
| 20260903064405 | 17 | 169 | 0.0 | 0.0 | 0.00 | 0.00 | 0.00 | 86 | 1020.9 |
| 20260903063907 | 17 | 169 | 0.0 | 0.0 | 0.00 | 0.00 | 0.00 | 86 | 1020.9 |
| 20260903063404 | 17 | 169 | 0.0 | 0.0 | 0.00 | 0.00 | 0.00 | 86 | 1020.8 |
| 20260903062905 | 17 | 169 | 0.0 | 0.0 | 0.00 | 0.00 | 0.00 | 85 | 1020.8 |
| 20260903061905 | 17 | 169 | 0.0 | 0.0 | 0.00 | 0.00 | 0.00 | 85 | 1020.6 |
| 20260903061405 | 17 | 169 | 0.0 | 0.0 | 0.00 | 0.00 | 0.00 | 85 | 1020.6 |
| 20260903060905 | 17 | 169 | 0.0 | 0.0 | 0.00 | 0.00 | 0.00 | 85 | 1020.5 |
| 20260903060405 | 17 | 169 | 0.0 | 0.0 | 0.00 | 0.00 | 0.00 | 85 | 1020.4 |
| 20260903055904 | 17 | 169 | 0.0 | 0.0 | 0.00 | 0.00 | 0.00 | 85 | 1020.3 |
| 20260903055404 | 17 | 169 | 0.0 | 0.0 | 0.00 | 0.00 | 0.00 | 86 | 1020.3 |
| 20260903054905 | 17 | 169 | 0.0 | 0.0 | 0.00 | 0.00 | 0.00 | 86 | 1020.3 |
| 20260903054404 | 17 | 169 | 0.0 | 0.0 | 0.00 | 0.00 | 0.00 | 86 | 1020.2 |
| 20260903053405 | 17 | 169 | 0.0 | 0.0 | 0.00 | 0.00 | 0.00 | 86 | 1020.2 |
| 20260903052905 | 17 | 169 | 0.0 | 0.0 | 0.00 | 0.00 | 0.00 | 87 | 1020.2 |
| 20260903052404 | 17 | 169 | 0.0 | 0.0 | 0.00 | 0.00 | 0.00 | 86 | 1020.1 |
| 20260903051905 | 17 | 169 | 0.0 | 0.0 | 0.00 | 0.00 | 0.00 | 86 | 1020.1 |
| 20260903051405 | 17 | 169 | 0.0 | 0.0 | 0.00 | 0.00 | 0.00 | 86 | 1020.1 |
| 20260903050905 | 17 | 169 | 0.0 | 0.0 | 0.00 | 0.00 | 0.00 | 86 | 1020.1 |
| 20260903050404 | 17 | 169 | 0.0 | 0.0 | 0.00 | 0.00 | 0.00 | 86 | 1020.1 |
| 20260903045904 | 17 | 169 | 0.0 | 0.0 | 0.00 | 0.00 | 0.00 | 85 | 1020.0 |
| 20260903045405 | 17 | 169 | 0.0 | 0.0 | 0.00 | 0.00 | 0.00 | 84 | 1020.0 |
| 20260903044904 | 17 | 169 | 0.0 | 0.0 | 0.00 | 0.00 | 0.00 | 84 | 1019.9 |
| 20260903044405 | 17 | 169 | 0.0 | 0.0 | 0.00 | 0.00 | 0.00 | 85 | 1019.8 |
| 20260903043905 | 17 | 169 | 0.0 | 0.0 | 0.00 | 0.00 | 0.00 | 84 | 1019.8 |
| 20260903043405 | 18 | 169 | 0.0 | 0.0 | 0.00 | 0.00 | 0.00 | 82 | 1019.8 |
| 20260903042904 | 18 | 169 | 0.0 | 0.0 | 0.00 | 0.00 | 0.00 | 81 | 1019.7 |
| 20260903042404 | 19 | 169 | 0.0 | 0.0 | 0.00 | 0.00 | 0.00 | 80 | 1019.7 |
| 20260903041904 | 19 | 169 | 0.0 | 0.0 | 0.00 | 0.00 | 0.00 | 82 | 1019.7 |
| 20260903040904 | 18 | 169 | 0.0 | 0.0 | 0.00 | 0.00 | 0.00 | 82 | 1019.8 |
| 20260903040404 | 18 | 169 | 0.0 | 0.0 | 0.00 | 0.00 | 0.00 | 82 | 1019.8 |
| 20260903035905 | 19 | 169 | 0.0 | 0.0 | 0.00 | 0.00 | 0.00 | 82 | 1019.8 |
| 20260903035404 | 18 | 169 | 0.0 | 0.0 | 0.00 | 0.00 | 0.00 | 82 | 1019.8 |
| 20260903034905 | 18 | 169 | 0.0 | 0.0 | 0.00 | 0.00 | 0.00 | 83 | 1019.7 |
| 20260903034405 | 18 | 169 | 0.0 | 0.0 | 0.00 | 0.00 | 0.00 | 82 | 1019.8 |
| 20260903033905 | 18 | 169 | 0.0 | 0.0 | 0.00 | 0.00 | 0.00 | 83 | 1019.8 |
| 20260903033404 | 18 | 169 | 0.0 | 0.0 | 0.00 | 0.00 | 0.00 | 83 | 1019.8 |
| 20260903032905 | 18 | 169 | 0.0 | 0.0 | 0.00 | 0.00 | 0.00 | 82 | 1019.8 |
| 20260903032405 | 18 | 169 | 0.0 | 0.0 | 0.00 | 0.00 | 0.00 | 82 | 1019.8 |
| 20260903031905 | 19 | 169 | 0.0 | 0.0 | 0.00 | 0.00 | 0.00 | 83 | 1019.7 |
| 20260903031405 | 19 | 169 | 0.0 | 0.0 | 0.00 | 0.00 | 0.00 | 83 | 1019.8 |
| 20260903030904 | 18 | 169 | 0.0 | 0.0 | 0.00 | 0.00 | 0.00 | 84 | 1019.9 |
| 20260903030404 | 18 | 169 | 0.0 | 0.0 | 0.00 | 0.00 | 0.00 | 84 | 1019.8 |
| 20260903025904 | 18 | 169 | 0.0 | 0.0 | 0.00 | 0.00 | 0.00 | 83 | 1019.8 |
| 20260903024905 | 19 | 169 | 0.0 | 0.0 | 0.00 | 0.00 | 0.00 | 80 | 1019.9 |
| 20260903024404 | 20 | 169 | 0.0 | 0.0 | 0.00 | 0.00 | 0.00 | 79 | 1019.9 |
| 20260903023904 | 20 | 169 | 0.0 | 0.0 | 0.00 | 0.00 | 0.00 | 81 | 1019.9 |
| 20260903023405 | 20 | 169 | 0.0 | 0.0 | 0.00 | 0.00 | 0.00 | 82 | 1019.9 |
| 20260903022904 | 20 | 169 | 0.0 | 0.0 | 0.00 | 0.00 | 0.00 | 82 | 1019.9 |
| 20260903022404 | 20 | 169 | 0.0 | 0.0 | 0.00 | 0.00 | 0.00 | 82 | 1020.0 |
| 20260903021904 | 20 | 169 | 0.0 | 0.0 | 0.00 | 0.00 | 0.00 | 82 | 1020.0 |
| 20260903021405 | 19 | 169 | 0.0 | 0.0 | 0.00 | 0.00 | 0.00 | 82 | 1020.0 |
| 20260903020904 | 19 | 169 | 0.0 | 0.0 | 0.00 | 0.00 | 0.00 | 82 | 1019.9 |
| 20260903020405 | 20 | 169 | 0.0 | 0.0 | 0.00 | 0.00 | 0.00 | 81 | 1019.9 |
| 20260903015405 | 20 | 169 | 0.0 | 0.0 | 0.00 | 0.00 | 0.00 | 81 | 1019.9 |
| 20260903014904 | 20 | 169 | 0.0 | 0.0 | 0.00 | 0.00 | 0.00 | 81 | 1019.9 |
| 20260903014404 | 20 | 169 | 0.0 | 0.0 | 0.00 | 0.00 | 0.00 | 81 | 1019.9 |
| 20260903013905 | 20 | 169 | 0.0 | 0.0 | 0.00 | 0.00 | 0.00 | 81 | 1020.0 |
| 20260903013405 | 20 | 169 | 0.0 | 0.0 | 0.00 | 0.00 | 0.00 | 80 | 1020.0 |
| 20260903012404 | 20 | 169 | 0.0 | 0.0 | 0.00 | 0.00 | 0.00 | 80 | 1020.0 |
| 20260903011904 | 20 | 169 | 0.0 | 0.0 | 0.00 | 0.00 | 0.00 | 79 | 1020.1 |
| 20260903011404 | 20 | 169 | 0.0 | 0.0 | 0.00 | 0.00 | 0.00 | 79 | 1020.1 |
| 20260903010405 | 20 | 169 | 0.0 | 0.0 | 0.00 | 0.00 | 0.00 | 79 | 1020.2 |
| 20260903005904 | 20 | 169 | 0.0 | 0.0 | 0.00 | 0.00 | 0.00 | 79 | 1020.2 |
| 20260903004905 | 20 | 169 | 0.0 | 0.0 | 0.00 | 0.00 | 0.00 | 78 | 1020.3 |
| 20260903004405 | 21 | 169 | 0.0 | 0.0 | 0.00 | 0.00 | 0.00 | 78 | 1020.4 |
| 20260903003905 | 21 | 169 | 0.0 | 0.0 | 0.00 | 0.00 | 0.00 | 77 | 1020.4 |
| 20260903003405 | 21 | 169 | 0.0 | 0.0 | 0.00 | 0.00 | 0.00 | 77 | 1020.4 |
| 20260903002405 | 21 | 169 | 0.0 | 0.0 | 0.00 | 0.00 | 0.00 | 76 | 1020.3 |
| 20260903001905 | 21 | 169 | 0.0 | 0.0 | 0.00 | 0.00 | 0.00 | 76 | 1020.3 |
| 20260903001405 | 21 | 169 | 0.0 | 0.0 | 0.00 | 0.00 | 0.00 | 75 | 1020.2 |
| 20260903000905 | 21 | 169 | 0.0 | 0.0 | 0.00 | 0.00 | 0.00 | 75 | 1020.2 |
| 20260903000404 | 21 | 169 | 0.0 | 0.0 | 0.00 | 0.00 | 0.00 | 75 | 1020.3 |
| 20260902235904 | 21 | 169 | 0.0 | 0.0 | 0.00 | 0.00 | 0.00 | 75 | 1020.2 |
| 20260902235404 | 21 | 169 | 0.0 | 0.0 | 0.00 | 0.00 | 0.00 | 74 | 1020.2 |
| 20260902234904 | 22 | 169 | 0.0 | 0.0 | 0.00 | 0.00 | 0.00 | 74 | 1020.3 |
| 20260902234405 | 22 | 169 | 0.0 | 0.0 | 0.00 | 0.00 | 0.00 | 74 | 1020.2 |
| 20260902232905 | 22 | 169 | 0.0 | 0.0 | 0.00 | 0.00 | 0.00 | 74 | 1020.2 |
| 20260902231904 | 22 | 169 | 0.0 | 0.0 | 0.00 | 0.00 | 0.00 | 73 | 1020.1 |
| 20260902231404 | 22 | 169 | 0.0 | 0.0 | 0.00 | 0.00 | 0.00 | 72 | 1020.1 |
| 20260902230904 | 22 | 169 | 0.0 | 0.0 | 0.00 | 0.00 | 0.00 | 72 | 1020.2 |
| 20260902230404 | 22 | 169 | 0.0 | 1.6 | 0.00 | 0.00 | 0.00 | 71 | 1020.2 |
| 20260902225904 | 22 | 169 | 0.0 | 0.0 | 0.00 | 0.00 | 0.00 | 70 | 1020.2 |
| 20260902225405 | 23 | 169 | 1.6 | 8.0 | 0.00 | 0.00 | 0.00 | 68 | 1020.2 |
| 20260902224904 | 23 | 169 | 0.0 | 3.2 | 0.00 | 0.00 | 0.00 | 66 | 1020.1 |
| 20260902224405 | 23 | 169 | 4.8 | 9.7 | 0.00 | 0.00 | 0.00 | 66 | 1020.1 |
| 20260902223404 | 23 | 157 | 1.6 | 8.0 | 0.00 | 0.00 | 0.00 | 66 | 1020.1 |
| 20260902222905 | 23 | 157 | 3.2 | 8.0 | 0.00 | 0.00 | 0.00 | 65 | 1020.0 |
| 20260902222404 | 24 | 157 | 4.8 | 9.7 | 0.00 | 0.00 | 0.00 | 65 | 1020.1 |
| 20260902221904 | 24 | 138 | 3.2 | 8.0 | 0.00 | 0.00 | 0.00 | 64 | 1020.1 |
| 20260902221405 | 24 | 138 | 3.2 | 8.0 | 0.00 | 0.00 | 0.00 | 64 | 1020.1 |
| 20260902220904 | 24 | 138 | 1.6 | 4.8 | 0.00 | 0.00 | 0.00 | 64 | 1020.1 |
| 20260902220405 | 24 | 138 | 1.6 | 4.8 | 0.00 | 0.00 | 0.00 | 64 | 1020.1 |
| 20260902215904 | 24 | 138 | 0.0 | 3.2 | 0.00 | 0.00 | 0.00 | 63 | 1020.1 |
| 20260902215404 | 24 | 138 | 1.6 | 4.8 | 0.00 | 0.00 | 0.00 | 62 | 1020.1 |
| 20260902214904 | 25 | 138 | 0.0 | 3.2 | 0.00 | 0.00 | 0.00 | 62 | 1020.1 |
| 20260902214405 | 25 | 138 | 1.6 | 11.3 | 0.00 | 0.00 | 0.00 | 62 | 1020.1 |
| 20260902213904 | 25 | 126 | 3.2 | 11.3 | 0.00 | 0.00 | 0.00 | 61 | 1020.1 |
| 20260902213404 | 25 | 186 | 0.0 | 9.7 | 0.00 | 0.00 | 0.00 | 61 | 1020.1 |
| 20260902212905 | 25 | 187 | 1.6 | 8.0 | 0.00 | 0.00 | 0.00 | 60 | 1020.1 |
| 20260902211904 | 25 | 179 | 1.6 | 4.8 | 0.00 | 0.00 | 0.00 | 59 | 1020.1 |
| 20260902211404 | 25 | 179 | 1.6 | 8.0 | 0.00 | 0.00 | 0.00 | 59 | 1020.1 |
| 20260902210907 | 25 | 131 | 0.0 | 4.8 | 0.00 | 0.00 | 0.00 | 58 | 1020.0 |
| 20260902210404 | 25 | 122 | 3.2 | 9.7 | 0.00 | 0.00 | 0.00 | 58 | 1020.1 |
| 20260902205905 | 25 | 114 | 4.8 | 14.5 | 0.00 | 0.00 | 0.00 | 57 | 1020.0 |
| 20260902205404 | 25 | 161 | 6.4 | 14.5 | 0.00 | 0.00 | 0.00 | 57 | 1020.1 |
| 20260902204905 | 26 | 144 | 9.7 | 16.1 | 0.00 | 0.00 | 0.00 | 57 | 1020.1 |
| 20260902203904 | 26 | 131 | 4.8 | 12.9 | 0.00 | 0.00 | 0.00 | 56 | 1020.0 |
| 20260902203404 | 26 | 123 | 6.4 | 16.1 | 0.00 | 0.00 | 0.00 | 56 | 1020.0 |
| 20260902202904 | 26 | 134 | 4.8 | 19.3 | 0.00 | 0.00 | 0.00 | 55 | 1020.0 |
| 20260902202405 | 26 | 166 | 3.2 | 11.3 | 0.00 | 0.00 | 0.00 | 55 | 1020.0 |
| 20260902201404 | 26 | 142 | 3.2 | 16.1 | 0.00 | 0.00 | 0.00 | 54 | 1019.9 |
| 20260902200904 | 26 | 135 | 3.2 | 11.3 | 0.00 | 0.00 | 0.00 | 54 | 1019.7 |
| 20260902200404 | 26 | 225 | 3.2 | 11.3 | 0.00 | 0.00 | 0.00 | 54 | 1019.7 |
| 20260902195904 | 26 | 120 | 1.6 | 8.0 | 0.00 | 0.00 | 0.00 | 54 | 1019.6 |
| 20260902195405 | 27 | 173 | 6.4 | 19.3 | 0.00 | 0.00 | 0.00 | 53 | 1019.6 |
| 20260902194905 | 27 | 125 | 1.6 | 16.1 | 0.00 | 0.00 | 0.00 | 53 | 1019.5 |
| 20260902194405 | 27 | 150 | 6.4 | 19.3 | 0.00 | 0.00 | 0.00 | 53 | 1019.5 |
| 20260902193904 | 27 | 106 | 1.6 | 11.3 | 0.00 | 0.00 | 0.00 | 53 | 1019.4 |
| 20260902193404 | 27 | 160 | 0.0 | 12.9 | 0.00 | 0.00 | 0.00 | 53 | 1019.3 |
| 20260902192904 | 27 | 125 | 1.6 | 11.3 | 0.00 | 0.00 | 0.00 | 53 | 1019.3 |
| 20260902191406 | 28 | 136 | 1.6 | 14.5 | 0.00 | 0.00 | 0.00 | 53 | 1019.2 |
| 20260902190906 | 28 | 114 | 3.2 | 14.5 | 0.00 | 0.00 | 0.00 | 53 | 1019.3 |
| 20260902190406 | 28 | 104 | 1.6 | 19.3 | 0.00 | 0.00 | 0.00 | 53 | 1019.4 |
| 20260902185905 | 28 | 108 | 1.6 | 11.3 | 0.00 | 0.00 | 0.00 | 53 | 1019.4 |
| 20260902185405 | 28 | 106 | 8.0 | 12.9 | 0.00 | 0.00 | 0.00 | 53 | 1019.4 |
| 20260902183905 | 30 | 124 | 6.4 | 16.1 | 0.00 | 0.00 | 0.00 | 52 | 1019.4 |
| 20260902183405 | 30 | 126 | 3.2 | 12.9 | 0.00 | 0.00 | 0.00 | 51 | 1019.3 |
| 20260902182905 | 30 | 87 | 1.6 | 8.0 | 0.00 | 0.00 | 0.00 | 50 | 1019.3 |
| 20260902181905 | 31 | 129 | 4.8 | 19.3 | 0.00 | 0.00 | 0.00 | 48 | 1019.2 |
| 20260902181405 | 31 | 121 | 1.6 | 11.3 | 0.00 | 0.00 | 0.00 | 46 | 1019.2 |
| 20260902180405 | 33 | 182 | 1.6 | 11.3 | 0.00 | 0.00 | 0.00 | 35 | 1019.2 |
| 20260902175905 | 33 | 132 | 0.0 | 3.2 | 0.00 | 0.00 | 0.00 | 23 | 1019.1 |
| 20260902175405 | 33 | 132 | 0.0 | 3.2 | 0.00 | 0.00 | 0.00 | 23 | 1019.0 |
| 20260902174905 | 33 | 132 | 1.6 | 4.8 | 0.00 | 0.00 | 0.00 | 24 | 1019.0 |
| 20260902174405 | 33 | 154 | 1.6 | 11.3 | 0.00 | 0.00 | 0.00 | 24 | 1019.0 |
| 20260902173905 | 33 | 115 | 1.6 | 9.7 | 0.00 | 0.00 | 0.00 | 24 | 1019.0 |
| 20260902173405 | 33 | 138 | 1.6 | 9.7 | 0.00 | 0.00 | 0.00 | 24 | 1019.0 |
| 20260902172906 | 33 | 138 | 1.6 | 8.0 | 0.00 | 0.00 | 0.00 | 24 | 1019.0 |
| 20260902172405 | 33 | 117 | 0.0 | 8.0 | 0.00 | 0.00 | 0.00 | 25 | 1018.9 |
| 20260902171908 | 33 | 161 | 1.6 | 4.8 | 0.00 | 0.00 | 0.00 | 25 | 1019.0 |
| 20260902171405 | 33 | 162 | 1.6 | 4.8 | 0.00 | 0.00 | 0.00 | 25 | 1019.0 |
| 20260902170905 | 33 | 126 | 0.0 | 11.3 | 0.00 | 0.00 | 0.00 | 25 | 1019.1 |
| 20260902170405 | 33 | 134 | 0.0 | 3.2 | 0.00 | 0.00 | 0.00 | 25 | 1019.2 |
| 20260902165905 | 33 | 134 | 0.0 | 12.9 | 0.00 | 0.00 | 0.00 | 25 | 1019.3 |
| 20260902165405 | 33 | 132 | 1.6 | 8.0 | 0.00 | 0.00 | 0.00 | 25 | 1019.3 |
| 20260902164905 | 34 | 132 | 1.6 | 4.8 | 0.00 | 0.00 | 0.00 | 25 | 1019.3 |
| 20260902164405 | 34 | 129 | 1.6 | 11.3 | 0.00 | 0.00 | 0.00 | 27 | 1019.3 |
| 20260902163905 | 33 | 171 | 1.6 | 9.7 | 0.00 | 0.00 | 0.00 | 27 | 1019.3 |
| 20260902163405 | 33 | 151 | 4.8 | 11.3 | 0.00 | 0.00 | 0.00 | 26 | 1019.4 |
| 20260902162905 | 33 | 169 | 1.6 | 8.0 | 0.00 | 0.00 | 0.00 | 27 | 1019.4 |
| 20260902162405 | 33 | 165 | 1.6 | 8.0 | 0.00 | 0.00 | 0.00 | 27 | 1019.5 |
| 20260902161905 | 33 | 128 | 3.2 | 8.0 | 0.00 | 0.00 | 0.00 | 27 | 1019.5 |
| 20260902161405 | 33 | 194 | 1.6 | 11.3 | 0.00 | 0.00 | 0.00 | 28 | 1019.6 |
| 20260902160905 | 33 | 213 | 1.6 | 16.1 | 0.00 | 0.00 | 0.00 | 27 | 1019.5 |
| 20260902160405 | 33 | 103 | 0.0 | 4.8 | 0.00 | 0.00 | 0.00 | 28 | 1019.6 |
| 20260902155905 | 33 | 103 | 4.8 | 11.3 | 0.00 | 0.00 | 0.00 | 28 | 1019.6 |
| 20260902155406 | 33 | 196 | 3.2 | 11.3 | 0.00 | 0.00 | 0.00 | 28 | 1019.7 |
| 20260902154905 | 33 | 131 | 4.8 | 11.3 | 0.00 | 0.00 | 0.00 | 28 | 1019.7 |
| 20260902154405 | 33 | 160 | 4.8 | 11.3 | 0.00 | 0.00 | 0.00 | 28 | 1019.7 |
| 20260902153905 | 33 | 76 | 4.8 | 11.3 | 0.00 | 0.00 | 0.00 | 29 | 1019.7 |
| 20260902153405 | 33 | 213 | 1.6 | 9.7 | 0.00 | 0.00 | 0.00 | 29 | 1019.7 |
| 20260902152905 | 33 | 165 | 1.6 | 9.7 | 0.00 | 0.00 | 0.00 | 29 | 1019.7 |
| 20260902152405 | 33 | 188 | 4.8 | 11.3 | 0.00 | 0.00 | 0.00 | 29 | 1019.8 |
| 20260902151905 | 33 | 122 | 0.0 | 9.7 | 0.00 | 0.00 | 0.00 | 29 | 1019.8 |
| 20260902151405 | 33 | 120 | 3.2 | 14.5 | 0.00 | 0.00 | 0.00 | 29 | 1019.8 |
| 20260902150906 | 33 | 180 | 0.0 | 4.8 | 0.00 | 0.00 | 0.00 | 30 | 1019.7 |
| 20260902150405 | 33 | 187 | 1.6 | 4.8 | 0.00 | 0.00 | 0.00 | 30 | 1019.9 |
| 20260902145405 | 33 | 113 | 3.2 | 12.9 | 0.00 | 0.00 | 0.00 | 31 | 1019.9 |
| 20260902144905 | 33 | 144 | 3.2 | 16.1 | 0.00 | 0.00 | 0.00 | 31 | 1020.0 |
| 20260902144405 | 33 | 180 | 1.6 | 8.0 | 0.00 | 0.00 | 0.00 | 32 | 1020.0 |
| 20260902143905 | 33 | 160 | 4.8 | 12.9 | 0.00 | 0.00 | 0.00 | 31 | 1020.0 |
| 20260902143405 | 33 | 115 | 1.6 | 11.3 | 0.00 | 0.00 | 0.00 | 32 | 1020.0 |
| 20260902142905 | 32 | 112 | 1.6 | 16.1 | 0.00 | 0.00 | 0.00 | 32 | 1020.1 |
| 20260902142405 | 33 | 158 | 6.4 | 11.3 | 0.00 | 0.00 | 0.00 | 32 | 1020.1 |
| 20260902141905 | 33 | 91 | 6.4 | 12.9 | 0.00 | 0.00 | 0.00 | 32 | 1020.3 |
| 20260902141405 | 33 | 118 | 0.0 | 8.0 | 0.00 | 0.00 | 0.00 | 32 | 1020.2 |
| 20260902140905 | 32 | 169 | 1.6 | 11.3 | 0.00 | 0.00 | 0.00 | 34 | 1020.3 |
| 20260902140405 | 32 | 267 | 8.0 | 12.9 | 0.00 | 0.00 | 0.00 | 35 | 1020.4 |
| 20260902135905 | 32 | 232 | 1.6 | 4.8 | 0.00 | 0.00 | 0.00 | 34 | 1020.4 |
| 20260902135405 | 32 | 130 | 1.6 | 9.7 | 0.00 | 0.00 | 0.00 | 35 | 1020.4 |
| 20260902134405 | 32 | 135 | 1.6 | 8.0 | 0.00 | 0.00 | 0.00 | 35 | 1020.4 |
| 20260902133905 | 32 | 141 | 1.6 | 9.7 | 0.00 | 0.00 | 0.00 | 34 | 1020.5 |
| 20260902133405 | 32 | 86 | 1.6 | 11.3 | 0.00 | 0.00 | 0.00 | 32 | 1020.5 |
| 20260902132905 | 32 | 162 | 1.6 | 9.7 | 0.00 | 0.00 | 0.00 | 33 | 1020.5 |
| 20260902132405 | 32 | 139 | 3.2 | 9.7 | 0.00 | 0.00 | 0.00 | 34 | 1020.6 |
| 20260902131906 | 32 | 81 | 0.0 | 9.7 | 0.00 | 0.00 | 0.00 | 35 | 1020.5 |
| 20260902131405 | 31 | 13 | 1.6 | 8.0 | 0.00 | 0.00 | 0.00 | 36 | 1020.6 |